ARIANE 5 DEB [SYLDA] (44037 NORAD) Tracking and Keplerian Element Data

This shows tracking and keplerian element data for the satellite.

Feedback or suggestion? Click here.




ElementValue
Catalog44037
NameARIANE 5 DEB [SYLDA]
Epoch Orbit33
Epoch Day51.60634204
Epoch Year2019
RAAN276.5754
Inclination2.7312
Eccentricity0.7286335
Argument of Perigee183.5108
Mean Anonmoly164.0433
Mean Motion2.27330207
Decay Rate1.021E-05
L11 44037U 19007D 19051.60634204 .00001021 00000-0 29058-3 0 9997
L22 44037 2.7312 276.5754 7286335 183.5108 164.0433 2.27330207 334

Live tracking and technical data element details for ARIANE 5 DEB [SYLDA] (NORAD 44037). ARIANE 5 DEB [SYLDA] can be tracked NOW for your location showing map with azimuth and elevation plus other details from your city location.

Track the satellite on the map from your city or location and see movement details for azimuth, elevation, latitude, longitude, range, height, and movement on the map or in text.







IsCatalogInMostPopularTable: catalog: 44037, numindb: 6
Update: records affected: 1



GetName: 44037 ARIANE 5 DEB [SYLDA]

Hit Count: updated at: Thu, 21 Feb 2019 11:50:51 GMT